GFSFLT2_850_temp_261.txt.gz
Temp
21 21 21 20 19 19 19 19 18 18 18 18 18 18 18 18 18 18 18 18 18 18 18 17 18 18 18 18 18 18 18 19
21 20 20 20 19 19 19 19 18 18 18 18 18 18 18 18 18 18 18 18 18 18 18 17 18 18 18 17 17 17 18 18
19 19 19 20 20 19 18 18 18 18 18 18 18 18 18 18 18 18 18 18 18 18 17 17 17 17 17 17 17 18 18 19
16 17 17 17 17 19 18 18 18 18 18 18 17 15 17 17 17 18 18 18 17 17 17 17 17 17 18 17 17 18 17 19
17 16 16 17 18 17 16 16 16 17 17 17 15 16 15 15 16 18 17 17 17 17 17 17 17 16 17 17 17 17 18 18
17 16 16 17 18 16 17 17 16 16 15 16 15 16 16 15 16 16 17 17 16 17 16 17 15 15 17 17 17 17 18 18
18 17 16 17 18 17 18 18 17 17 16 15 16 16 16 16 17 16 16 16 15 15 15 15 15 15 16 16 16 16 16 17
19 18 16 16 17 17 18 18 18 17 17 16 16 16 16 16 17 17 17 17 16 16 16 16 16 16 16 15 16 16 16 16
19 18 17 16 17 17 17 17 18 17 17 16 16 16 16 16 17 17 17 17 17 16 16 16 16 16 16 16 16 16 16 16
20 18 18 16 16 17 17 18 17 17 17 16 15 15 16 16 16 17 17 17 17 17 16 16 16 17 17 17 17 16 16 16
20 19 17 17 16 17 17 17 17 17 17 17 16 15 17 16 16 17 16 16 16 16 16 16 17 16 17 17 17 17 17 17
20 19 17 17 16 16 17 17 17 17 17 17 17 15 16 16 16 16 16 16 16 16 16 16 16 17 17 18 17 17 17 17
20 19 18 17 17 16 17 17 17 17 17 17 17 15 15 18 16 16 16 16 16 16 16 16 16 16 17 17 17 17 17 17
21 19 18 17 17 17 17 18 17 18 17 17 17 16 16 17 16 16 16 16 16 16 16 16 16 16 16 17 18 19 19 18
21 20 18 17 17 17 17 17 18 18 18 17 16 16 15 15 15 17 16 16 16 16 16 16 16 16 16 17 19 19 20 20
20 20 19 18 16 17 17 18 18 18 18 17 16 16 15 15 15 16 17 16 16 16 16 16 16 17 16 16 17 18 19 20
17 19 19 18 16 15 16 17 17 18 17 17 17 17 16 15 15 15 15 16 16 16 16 15 15 16 17 17 16 16 17 16
14 16 19 19 17 15 15 15 15 16 17 17 17 16 16 16 15 15 15 15 16 15 16 15 16 16 17 17 17 17 16 16
10 14 16 16 16 16 15 15 15 15 15 16 16 16 16 16 15 15 15 15 15 15 15 16 16 16 17 17 17 17 17 17
6 8 11 13 14 14 15 15 15 15 15 15 15 16 16 16 16 15 15 14 14 15 15 15 16 16 16 17 17 17 17 17

GFSFLT2_850_temp_264.txt.gz
Temp
21 20 20 20 20 19 19 19 19 19 19 18 18 18 18 17 17 18 18 17 17 17 18 18 18 18 18 18 18 18 19 19
21 20 20 20 19 19 19 18 18 18 18 18 18 18 18 18 17 18 17 17 17 17 17 17 18 18 18 18 18 18 18 18
20 20 20 19 19 19 18 18 18 18 18 18 18 18 18 18 18 18 17 17 17 17 17 17 17 18 18 18 18 18 18 19
19 19 19 19 19 19 18 18 17 17 17 17 18 18 18 18 18 18 17 17 17 17 17 17 17 18 17 18 18 18 18 18
17 18 18 18 17 20 18 17 17 17 17 17 18 17 17 17 18 18 17 17 17 17 17 17 17 18 17 18 18 17 18 18
17 17 17 17 17 19 19 18 17 17 17 18 17 16 16 16 17 18 18 18 17 17 17 17 17 17 16 16 17 17 17 18
19 17 17 17 17 17 18 17 17 18 18 18 17 17 16 16 16 17 18 18 18 18 18 18 18 17 17 17 17 17 17 18
19 18 17 17 17 17 17 17 17 17 17 18 18 17 16 16 16 16 17 17 17 17 17 17 18 17 17 17 17 16 16 17
20 19 18 17 18 17 18 17 17 17 16 17 18 17 16 16 17 16 16 17 17 17 16 16 16 17 16 16 17 17 17 16
21 20 19 18 17 17 17 18 18 17 17 17 17 17 16 16 17 17 17 17 17 17 17 16 16 16 16 16 17 17 17 17
22 20 19 18 18 17 17 17 18 18 17 17 17 17 17 16 16 17 17 17 17 17 17 16 16 17 17 17 17 17 17 17
22 21 19 18 18 17 16 17 17 17 17 17 17 17 17 17 16 17 16 17 17 17 17 16 17 16 17 17 17 17 17 17
22 21 20 18 17 17 17 16 17 17 17 17 17 17 17 18 17 16 16 16 17 17 17 16 16 17 17 17 18 18 17 17
22 21 20 19 18 18 16 17 17 17 17 17 17 17 17 17 17 16 16 16 16 16 16 16 16 16 16 17 17 17 18 19
20 21 20 19 18 17 17 16 17 17 17 17 17 17 17 17 17 17 16 16 16 17 16 16 16 17 16 16 17 17 18 19
16 18 19 19 19 18 17 17 17 17 17 17 17 17 17 17 16 16 17 16 16 16 17 17 16 16 16 16 17 18 18 19
11 15 17 18 19 18 17 16 17 17 18 18 17 17 17 17 16 16 16 16 16 16 16 16 16 17 17 16 16 17 18 17
8 12 15 16 16 17 17 16 16 17 18 18 18 17 17 17 16 16 16 15 16 16 16 16 16 17 17 17 17 16 17 17
6 8 11 12 13 13 15 16 15 16 17 17 16 17 17 17 16 16 16 15 15 15 15 15 16 15 16 17 17 17 17 17
6 5 6 8 10 12 12 14 14 14 14 16 16 15 16 16 16 16 16 15 15 16 15 15 15 15 15 16 16 17 17 17

GFSFLT2_850_temp_270.txt.gz
Temp
20 19 19 19 19 19 19 19 19 18 18 18 18 18 18 18 18 18 18 18 18 18 18 18 18 17 17 17 17 17 17 17
20 19 19 18 18 18 19 19 18 18 18 18 18 18 18 17 18 18 18 18 18 18 18 18 18 17 17 17 17 16 17 17
21 20 19 19 18 18 18 18 18 18 18 18 18 18 18 17 17 18 18 18 18 18 17 18 18 18 17 17 17 17 16 17
20 20 20 19 18 17 17 17 18 18 18 18 17 18 18 18 17 17 17 18 17 17 17 17 18 18 18 18 17 17 17 17
21 20 20 20 19 18 17 17 17 17 17 17 17 17 17 17 17 18 18 17 18 17 17 17 18 18 18 18 17 17 17 17
20 20 19 20 20 19 18 17 17 17 17 17 17 17 17 17 18 18 18 18 18 18 18 17 18 18 18 18 17 18 17 17
19 20 20 20 21 20 19 18 17 17 17 17 17 17 18 18 18 18 18 18 18 18 18 18 18 18 18 18 17 17 17 17
18 19 20 20 21 21 20 19 18 17 17 17 17 17 17 18 18 18 18 18 18 18 18 18 18 17 18 18 18 17 17 17
16 18 18 20 21 21 21 20 19 18 18 18 17 17 17 18 18 18 18 17 18 18 18 18 18 18 18 17 17 17 17 16
16 16 16 18 19 20 21 20 20 20 19 18 18 17 17 17 18 18 17 17 16 18 18 18 18 18 18 18 18 17 17 17
16 17 17 17 18 19 20 20 20 20 19 19 19 18 18 17 17 18 17 17 16 16 17 18 18 18 18 18 17 17 18 18
14 15 16 15 15 17 18 18 18 19 19 19 19 18 18 17 17 17 16 16 17 16 17 17 17 18 17 17 17 17 17 18
13 15 14 15 14 15 16 18 18 18 18 18 18 18 17 17 17 17 16 16 16 17 16 16 16 17 16 16 17 17 17 17
11 13 14 15 15 15 14 16 18 19 18 18 18 17 17 17 17 17 17 16 16 16 16 16 16 16 16 16 16 17 17 18
9 10 12 13 15 15 15 14 15 17 17 17 17 17 17 17 17 17 17 16 16 16 16 16 16 16 16 16 16 15 17 19
8 9 10 11 12 13 14 14 14 15 17 18 17 17 17 16 17 17 17 17 16 16 17 16 16 16 16 16 16 17 17 18
7 7 8 10 9 11 11 13 14 13 15 15 15 15 15 17 17 16 16 17 17 16 16 16 16 16 16 16 16 16 16 16
6 6 7 8 9 9 9 10 12 12 14 14 15 14 14 14 14 15 17 17 17 17 17 16 16 16 15 16 16 16 16 16
6 6 6 6 7 9 8 7 7 8 9 10 12 11 13 12 14 13 14 14 16 17 16 16 16 16 15 15 15 15 15 15
6 6 6 6 6 6 7 7 7 6 6 6 7 8 8 12 12 10 12 12 13 13 14 16 16 15 15 15 15 15 15 15

GFSFLT2_850_temp_276.txt.gz
Temp
19 19 19 19 19 19 18 18 18 18 18 17 17 17 17 17 17 17 17 17 18 18 17 17 17 17 16 17 17 17 17 17
19 19 19 19 19 19 18 18 18 18 18 17 17 17 17 17 17 17 17 17 17 17 17 17 16 16 16 16 16 17 17 17
17 17 18 19 19 19 18 18 18 17 17 17 17 17 17 17 17 17 17 17 17 17 17 17 16 16 16 16 16 16 17 17
15 16 17 17 18 18 18 18 18 18 17 17 17 17 17 17 17 17 17 17 17 17 17 17 16 16 16 16 16 16 16 16
16 15 15 16 17 17 18 18 18 18 18 17 17 17 17 17 17 17 17 17 17 17 17 17 17 17 16 16 16 16 16 16
16 17 16 15 15 16 17 17 18 18 18 18 17 17 17 17 17 17 17 17 17 17 17 17 17 17 17 16 16 17 16 16
16 17 17 17 16 15 15 16 17 17 18 18 18 17 17 17 17 17 17 17 17 17 17 17 17 17 17 17 17 17 17 16
15 16 16 16 17 15 15 15 15 16 17 17 18 18 17 17 17 17 17 17 17 17 17 17 17 17 17 17 17 17 17 16
15 15 16 16 16 14 14 15 15 15 16 16 16 17 17 17 17 17 17 17 17 17 17 17 17 17 17 17 17 17 17 17
14 14 15 16 16 16 15 15 15 15 15 16 16 16 16 17 17 17 17 17 17 17 17 16 17 17 17 18 18 18 18 17
12 14 15 15 16 16 16 15 15 15 15 15 15 15 15 16 16 17 17 17 17 17 16 16 16 16 17 17 17 18 18 18
10 11 13 14 15 15 15 15 14 14 14 15 15 15 15 15 15 16 16 16 16 16 17 16 16 16 15 16 16 17 17 17
9 10 11 12 14 15 15 14 13 13 14 14 14 14 15 15 15 15 15 16 16 16 16 15 15 15 15 15 16 16 16 17
7 8 9 10 11 12 12 11 12 12 13 14 14 14 13 14 14 15 15 15 15 16 16 16 15 15 15 15 15 16 17 17
7 7 7 8 9 10 12 12 11 12 12 13 13 13 13 13 13 13 14 14 14 15 15 16 16 16 15 15 14 15 16 16
6 6 6 6 7 8 8 9 8 8 9 10 11 12 13 13 13 13 13 13 14 15 14 14 15 15 15 15 15 15 15 14
5 5 6 6 6 6 7 6 7 7 7 8 9 11 10 12 11 12 13 14 13 13 14 15 14 14 14 14 14 14 14 14
5 5 4 4 5 6 6 6 6 6 7 7 7 9 8 9 10 11 10 12 11 11 11 13 13 14 14 13 13 12 13 13
4 4 4 4 4 4 4 5 5 5 5 5 6 7 8 8 7 9 9 11 11 11 9 10 10 12 12 13 13 13 12 12
4 4 4 3 3 3 3 3 4 4 4 4 5 5 6 7 8 7 8 9 9 10 11 10 11 9 9 10 10 11 11 11

GFSFLT2_850_temp_279.txt.gz
Temp
17 17 17 18 19 19 19 18 18 18 17 17 17 17 17 17 17 17 17 17 17 17 17 17 17 17 17 17 17 17 17 17
16 16 17 17 17 18 18 18 18 18 17 17 17 17 17 16 16 17 17 17 17 17 17 17 16 16 16 16 16 17 17 17
15 16 16 16 16 17 17 17 18 18 18 18 17 17 17 17 17 16 17 17 17 17 17 16 16 16 16 16 16 17 17 17
15 15 16 16 16 16 17 17 17 17 18 18 18 17 17 17 17 17 16 16 16 16 16 16 16 16 16 16 16 16 16 17
16 16 16 16 16 16 16 16 16 17 17 17 17 17 17 17 17 17 17 17 16 16 16 16 16 16 16 16 16 16 16 16
16 16 16 17 17 16 15 15 16 16 16 17 17 17 17 17 17 17 17 17 17 17 16 16 16 16 16 16 16 16 16 16
15 16 16 16 17 16 16 16 16 15 15 16 16 16 17 17 17 17 17 17 17 17 17 16 16 16 16 16 17 17 17 16
14 15 16 16 16 15 15 15 15 16 15 15 15 16 16 16 16 16 17 17 17 17 17 17 16 16 16 16 16 17 17 17
13 14 15 15 16 16 16 15 15 15 16 16 15 15 15 15 15 16 16 16 16 16 17 17 17 17 17 17 16 16 16 17
12 13 13 14 15 16 16 16 15 14 14 14 15 15 15 15 15 15 15 15 15 15 16 16 16 16 17 17 17 17 17 17
11 12 13 13 14 15 16 16 13 13 14 14 14 14 15 15 14 15 15 15 15 15 15 15 15 16 16 16 17 17 17 17
9 10 12 13 13 14 14 13 13 13 13 13 14 14 14 14 14 14 14 14 15 15 15 15 15 15 15 15 16 16 17 18
8 9 9 11 12 13 14 13 12 12 12 12 13 13 14 14 14 14 14 14 14 14 14 14 14 15 14 15 15 16 16 17
8 8 8 8 9 10 11 11 10 10 11 11 12 12 13 13 13 13 13 13 14 14 14 14 14 13 12 13 13 15 15 17
6 7 7 7 8 8 9 10 11 11 11 11 10 11 11 12 12 13 13 13 13 14 13 13 14 14 14 12 14 15 16 15
6 6 6 6 6 7 8 8 8 8 8 8 9 9 9 10 10 11 12 12 13 13 13 13 13 13 13 14 14 13 14 15
4 5 5 5 5 6 6 6 6 7 7 7 7 7 8 8 9 9 10 10 11 11 12 11 11 12 13 13 13 15 14 12
4 4 4 4 4 5 5 5 6 7 7 7 7 7 7 7 7 8 8 9 9 10 10 11 11 11 11 11 11 12 13 12
4 4 3 3 3 4 4 5 5 5 5 6 6 6 6 6 6 7 6 7 8 8 9 10 11 11 12 12 11 10 10 10
4 3 3 3 3 3 3 4 4 4 4 5 5 5 5 5 5 5 6 6 6 7 7 7 8 10 11 10 10 9 10 9

GFSFLT2_850_temp_282.txt.gz
Temp
13 14 15 16 16 16 17 17 18 18 17 17 17 17 17 17 17 17 17 17 17 17 17 17 17 17 17 17 17 17 16 17
16 16 15 16 14 16 17 16 16 17 17 17 17 17 17 17 17 17 17 17 17 17 17 17 16 16 16 16 16 16 17 17
16 16 16 14 15 16 17 17 16 16 16 17 17 16 16 17 16 17 17 17 17 17 17 17 16 16 16 16 16 16 17 17
16 16 16 16 14 15 14 14 15 15 14 14 16 15 15 15 15 17 17 17 17 17 17 17 17 16 16 16 16 15 16 17
15 16 16 17 17 14 14 14 14 14 14 14 14 14 14 15 15 16 17 17 17 16 17 17 15 15 16 16 16 15 16 17
15 16 16 16 16 16 15 15 14 15 14 14 13 14 14 14 15 15 15 14 15 15 15 14 14 14 14 15 15 15 16 17
15 16 16 16 16 16 15 15 15 14 14 15 16 16 14 14 14 14 14 15 14 15 15 15 14 14 14 14 15 15 15 16
14 15 15 16 16 16 15 15 15 15 15 14 14 15 16 15 14 14 14 14 14 14 14 15 15 15 15 14 14 15 15 15
13 14 14 15 16 16 16 15 14 15 15 15 15 14 14 15 14 14 14 15 14 13 13 14 14 15 15 15 15 14 15 15
11 12 13 14 14 15 15 15 16 14 14 14 14 14 14 14 14 14 14 14 14 14 14 14 14 14 15 15 15 15 15 15
11 12 12 13 13 13 12 13 13 13 14 14 14 14 14 14 14 14 14 14 14 14 14 14 14 14 15 15 15 15 15 15
8 10 11 12 12 11 9 11 11 12 12 13 13 13 14 14 14 14 14 14 14 13 13 14 14 14 15 16 15 15 15 15
6 8 9 10 11 9 8 9 11 11 12 12 11 12 13 13 14 14 14 13 14 14 13 13 13 14 14 14 15 15 15 15
5 5 7 8 8 8 8 7 7 8 10 10 11 11 11 12 12 13 13 13 13 13 13 14 13 14 14 15 16 17 17 17
5 5 5 7 6 6 6 6 6 6 6 8 9 8 9 10 11 11 11 12 12 13 13 13 13 13 13 13 15 17 18 18
5 5 4 4 6 5 5 5 5 4 5 5 6 8 8 8 9 9 9 9 10 11 11 11 11 12 13 13 13 13 14 15
5 5 4 4 4 4 4 4 4 4 5 6 7 7 8 8 7 7 8 8 8 8 9 9 10 10 10 11 12 13 12 13
4 4 4 4 4 5 4 4 4 4 4 4 5 7 7 7 7 7 7 7 7 7 7 8 8 9 9 9 9 9 10 10
4 4 4 3 3 4 5 4 4 3 4 3 4 5 6 7 7 7 6 6 7 7 7 6 7 6 7 7 8 8 8 8
4 4 3 3 2 4 4 5 3 3 4 4 4 5 5 6 6 6 6 6 6 7 6 5 6 3 4 6 6 6 7 7